This is the latest recevied weather packets stored in our database for station/object OM6ABF-12. If no packets are shown the sender has not sent any weather packets the latest 10 day(s).
| Time | Temp. | Humidity | Pressure | Rain* | Wind** | Luminosity | Snow |
|---|---|---|---|---|---|---|---|
| 1777507611 | -5° C | 60% | 1033 hPa | - | - | - | - |
| 1777506655 | -5° C | 60% | 1033.1 hPa | - | - | - | - |
| 1777505697 | -5° C | 61% | 1033.1 hPa | - | - | - | - |
| 1777504740 | -5° C | 61% | 1033.2 hPa | - | - | - | - |
| 1777503782 | -5° C | 60% | 1033.1 hPa | - | - | - | - |
| 1777502826 | -4.44° C | 60% | 1033 hPa | - | - | - | - |
| 1777501869 | -4.44° C | 58% | 1032.9 hPa | - | - | - | - |
| 1777500913 | -4.44° C | 56% | 1032.7 hPa | - | - | - | - |
| 1777499954 | -4.44° C | 54% | 1032.8 hPa | - | - | - | - |
| 1777498997 | -3.89° C | 52% | 1032.5 hPa | - | - | - | - |
| 1777498041 | -3.89° C | 51% | 1032.5 hPa | - | - | - | - |
| 1777497082 | -3.33° C | 49% | 1032.5 hPa | - | - | - | - |
| 1777496126 | -3.33° C | 48% | 1032.3 hPa | - | - | - | - |
| 1777495168 | -3.33° C | 49% | 1032.1 hPa | - | - | - | - |
| 1777494211 | -3.33° C | 46% | 1031.9 hPa | - | - | - | - |
| 1777493255 | -2.78° C | 44% | 1031.7 hPa | - | - | - | - |
| 1777492297 | -2.78° C | 44% | 1031.5 hPa | - | - | - | - |
| 1777491339 | -2.78° C | 42% | 1031.4 hPa | - | - | - | - |
| 1777490382 | -2.22° C | 40% | 1031.3 hPa | - | - | - | - |
| 1777489423 | -2.22° C | 38% | 1031.2 hPa | - | - | - | - |
| 1777488467 | -1.67° C | 37% | 1031 hPa | - | - | - | - |
| 1777487509 | -1.67° C | 35% | 1030.8 hPa | - | - | - | - |
| 1777486552 | -1.11° C | 34% | 1030.4 hPa | - | - | - | - |
| 1777485593 | -1.11° C | 36% | 1030.4 hPa | - | - | - | - |
| 1777484637 | -0.56° C | 37% | 1030.2 hPa | - | - | - | - |
* Rain since midnight (hover to see other rain measurements)
** Current wind speed in m/s (hover to see current wind gust speed)